Weather Roundup
Issued by NWS

Home | Current Version | Previous Version | Text Only | Print | Product List | Glossary On
Versions: 1 2 3 4 5 6 7 8 9 10 11 12 13 14 15 16 17 18 19 20 21 22 23 24 25 26 27 28 29 30 31 32 33 34 35 36 37 38 39 40 41 42 43 44 45 46 47 48 49 50
000
NZUS93 KARX 200910
HRRWXR

CURRENT HOURLY OBSERVATIONS ACROSS
MUCH OF THE UPPER MISSISSIPPI VALLEY
NATIONAL WEATHER SERVICE LA CROSSE WI
400 AM CDT MON OCT 20 2014


...SOUTHEAST MINNESOTA...


CITY           SKY/WX    TMP DP  RH WIND       PRES   REMARKS
ROCHESTER      CLEAR     45  40  82 NW7       29.91R
ROCHESTER/MAYO FAIR      50  40  68 NW9       29.90R
WINONA         CLEAR     50  43  76 NW7       29.88R
AUSTIN         CLEAR     46  41  81 NW8       29.92R
ALBERT LEA     CLEAR     48  41  76 W5        29.94R
DODGE CENTER   CLEAR     46  43  87 NW7       29.91S
PRESTON        CLEAR     47  41  79 NW10      29.90R
OWATONNA       CLEAR     43  39  87 W5        29.93S
FARIBAULT      CLEAR     46  41  81 W3        29.93R
$$

...ELSEWHERE IN MINNESOTA...


CITY           SKY/WX    TMP DP  RH WIND       PRES   REMARKS
MINNEAPOLIS    PTCLDY    49  41  74 NW3       29.91S
INTNL FALLS    CLEAR     30  29  96 CALM      29.88S
DULUTH         CLEAR     46  40  79 NW9       29.85R
RED WING       CLEAR     45  41  87 CALM      29.89R
REDWOOD FALLS  CLEAR     43  37  79 W9        29.96R
MANKATO        CLEAR     48  37  66 NW5       29.93F
WORTHINGTON    CLEAR     43  36  75 NW7       30.01R
FAIRMONT       CLEAR     46  36  66 NW9       29.96S
$$

...SOUTHWEST WISCONSIN...


CITY           SKY/WX    TMP DP  RH WIND       PRES   REMARKS
LA CROSSE      CLEAR     47  41  80 NW7       29.85R
PRAIRIE DU CHI CLEAR     48  42  80 W6        29.84S
BOSCOBEL       CLEAR     45  42  89 CALM      29.83R
LONE ROCK      CLEAR     52  44  74 W10       29.81R
PLATTEVILLE    CLEAR     46  43  90 CALM      29.83R
FORT MC COY    CLEAR     50  42  74 W7        29.85R
CAMP DOUGLAS   MOCLDY    49  49 100 NW12      29.81R
VIROQUA        FAIR      48  43  81 NW10      29.83S
WIS DELLS      PTCLDY    48  43  82 W6        29.79R
$$

...ELSEWHERE IN WISCONSIN...


CITY           SKY/WX    TMP DP  RH WIND       PRES   REMARKS
MILWAUKEE      PTCLDY    49  42  77 SW6       29.78F
MADISON        CLEAR     46  43  89 CALM      29.78S
GREEN BAY      CLEAR     44  42  93 SW3       29.76R
EAU CLAIRE     CLEAR     48  41  76 W3        29.86R
BLACK RVR FLS  FAIR      49  42  76 NW7       29.83R
MEDFORD        CLEAR     43  40  91 NW7       29.81R
WAUSAU         CLEAR     42  41  96 NW5       29.78R
WIS RAPIDS     PTCLDY    40  38  93 NW7       29.80R
MARSHFIELD     CLEAR     48  43  82 NW15      29.80R
RICE LAKE      CLEAR     45  40  82 W5        29.88R
$$

...NORTHEAST IOWA...


CITY           SKY/WX    TMP DP  RH WIND       PRES   REMARKS
DECORAH        PTCLDY    48  43  81 VRB5      29.87R
MASON CITY     CLEAR     44  40  85 NW7       29.95R
CHARLES CITY   CLEAR     48  43  81 NW8       29.91S
OELWEIN        CLEAR     45  43  93 NW10      29.89R
$$

...ELSEWHERE IN IOWA...


CITY           SKY/WX    TMP DP  RH WIND       PRES   REMARKS
DES MOINES     CLEAR     52  45  77 N8        29.94S
IOWA CITY      CLEAR     47  45  93 W8        29.89S
FORT DODGE     CLEAR     45  37  76 CALM      29.98R
$$

...NORTHERN ILLINOIS...


CITY           SKY/WX    TMP DP  RH WIND       PRES   REMARKS
CHICAGO-OHARE  PTCLDY    50  43  77 SW12G18   29.82F
CHICAGO-MIDWAY CLEAR     50  45  83 SW10      29.83F
MOLINE         CLEAR     48  43  82 W3        29.86S
ROCKFORD       PTCLDY    47  42  83 S7        29.83F
PEORIA         CLEAR     49  44  83 SW5       29.88F
$$

NOTE: "FAIR" INDICATES FEW OR NO CLOUDS BELOW 12,000 FEET WITH NO
SIGNIFICANT WEATHER AND/OR OBSTRUCTIONS TO VISIBILITY. WIND
SPEEDS ARE IN MILES-PER-HOUR.



USA.gov is the U.S. government's official web portal to all federal, state and local government web resources and services.